Time,TemperatureF,DewpointF,PressureIn,WindDirection,WindDirectionDegrees,WindSpeedMPH,WindSpeedGustMPH,Humidity,HourlyPrecipIn,Conditions,Clouds,dailyrainin,SoftwareType,DateUTC
2013-12-28 00:04:00,37.2,26.2,29.94,SW,225,9.0,17.0,64,0.00,,,0.00,meteohub,2013-12-28 06:04:00,
2013-12-28 00:09:00,36.9,25.9,29.93,SW,225,8.0,13.0,64,0.00,,,0.00,meteohub,2013-12-28 06:09:00,
2013-12-28 00:14:00,36.9,25.9,29.93,SW,225,8.0,13.0,64,0.00,,,0.00,meteohub,2013-12-28 06:14:00,
2013-12-28 00:19:00,36.9,25.9,29.93,SW,225,9.0,12.0,64,0.00,,,0.00,meteohub,2013-12-28 06:19:00,
2013-12-28 00:24:00,36.9,25.9,29.93,West,270,11.0,12.0,64,0.00,,,0.00,meteohub,2013-12-28 06:24:00,
2013-12-28 00:29:00,36.7,25.7,29.93,NW,315,8.0,11.0,64,0.00,,,0.00,meteohub,2013-12-28 06:29:00,
2013-12-28 00:34:00,36.7,25.7,29.93,NW,315,8.0,11.0,64,0.00,,,0.00,meteohub,2013-12-28 06:34:00,
2013-12-28 00:39:00,36.9,25.9,29.93,NW,315,8.0,11.0,64,0.00,,,0.00,meteohub,2013-12-28 06:39:00,
2013-12-28 00:44:00,36.9,26.2,29.93,WSW,248,7.0,11.0,65,0.00,,,0.00,meteohub,2013-12-28 06:44:00,
2013-12-28 00:49:00,36.9,25.9,29.93,West,270,8.0,11.0,64,0.00,,,0.00,meteohub,2013-12-28 06:49:00,
2013-12-28 00:54:00,36.9,25.9,29.92,West,270,8.0,11.0,64,0.00,,,0.00,meteohub,2013-12-28 06:54:00,
2013-12-28 00:59:00,36.9,26.2,29.93,NW,315,8.0,11.0,65,0.00,,,0.00,meteohub,2013-12-28 06:59:00,
2013-12-28 01:05:00,36.9,25.9,29.92,West,270,5.0,13.0,64,0.00,,,0.00,meteohub,2013-12-28 07:05:00,
2013-12-28 01:10:00,36.7,25.7,29.92,West,270,10.0,13.0,64,0.00,,,0.00,meteohub,2013-12-28 07:10:00,
2013-12-28 01:15:00,36.7,26.1,29.92,SW,225,9.0,13.0,65,0.00,,,0.00,meteohub,2013-12-28 07:15:00,
2013-12-28 01:20:00,36.7,26.1,29.92,West,270,10.0,11.0,65,0.00,,,0.00,meteohub,2013-12-28 07:20:00,
2013-12-28 01:25:00,36.5,25.9,29.92,SW,225,10.0,11.0,65,0.00,,,0.00,meteohub,2013-12-28 07:25:00,
2013-12-28 01:30:00,36.5,25.9,29.92,NW,315,8.0,11.0,65,0.00,,,0.00,meteohub,2013-12-28 07:30:00,
2013-12-28 01:35:00,36.3,25.7,29.92,SW,225,8.0,11.0,65,0.00,,,0.00,meteohub,2013-12-28 07:35:00,
2013-12-28 01:40:00,36.3,25.7,29.92,WSW,248,11.0,12.0,65,0.00,,,0.00,meteohub,2013-12-28 07:40:00,
2013-12-28 01:45:00,36.3,25.7,29.92,West,270,5.0,12.0,65,0.00,,,0.00,meteohub,2013-12-28 07:45:00,
2013-12-28 01:50:00,36.0,25.3,29.93,West,270,7.0,12.0,65,0.00,,,0.00,meteohub,2013-12-28 07:50:00,
2013-12-28 01:55:00,36.0,25.7,29.92,SW,225,4.0,9.0,66,0.00,,,0.00,meteohub,2013-12-28 07:55:00,
2013-12-28 02:00:00,36.0,25.7,29.92,West,270,4.0,9.0,66,0.00,,,0.00,meteohub,2013-12-28 08:00:00,
2013-12-28 02:05:00,36.0,25.7,29.93,West,270,4.0,9.0,66,0.00,,,0.00,meteohub,2013-12-28 08:05:00,
2013-12-28 02:10:00,35.8,25.5,29.93,SW,225,6.0,6.0,66,0.00,,,0.00,meteohub,2013-12-28 08:10:00,
2013-12-28 02:15:00,35.8,25.5,29.93,West,270,4.0,8.0,66,0.00,,,0.00,meteohub,2013-12-28 08:15:00,
2013-12-28 02:20:00,35.8,25.5,29.93,SW,225,4.0,8.0,66,0.00,,,0.00,meteohub,2013-12-28 08:20:00,
2013-12-28 02:25:00,35.8,25.5,29.93,NW,315,7.0,8.0,66,0.00,,,0.00,meteohub,2013-12-28 08:25:00,
2013-12-28 02:30:00,35.8,25.5,29.92,SW,225,5.0,8.0,66,0.00,,,0.00,meteohub,2013-12-28 08:30:00,
2013-12-28 02:36:00,35.6,25.3,29.93,WSW,248,7.0,7.0,66,0.00,,,0.00,meteohub,2013-12-28 08:36:00,
2013-12-28 02:41:00,35.6,25.3,29.92,SW,225,8.0,9.0,66,0.00,,,0.00,meteohub,2013-12-28 08:41:00,
2013-12-28 02:46:00,35.6,25.3,29.92,SW,225,7.0,9.0,66,0.00,,,0.00,meteohub,2013-12-28 08:46:00,
2013-12-28 02:51:00,35.2,25.3,29.92,South,180,5.0,9.0,67,0.00,,,0.00,meteohub,2013-12-28 08:51:00,
2013-12-28 02:56:00,33.6,23.9,29.93,SW,225,4.0,9.0,67,0.00,,,0.00,meteohub,2013-12-28 08:56:00,
2013-12-28 03:01:00,32.4,23.4,29.93,South,180,4.0,8.0,69,0.00,,,0.00,meteohub,2013-12-28 09:01:00,
2013-12-28 03:06:00,31.1,23.2,29.93,South,180,4.0,5.0,72,0.00,,,0.00,meteohub,2013-12-28 09:06:00,
2013-12-28 03:11:00,30.4,22.8,29.93,South,180,3.0,5.0,73,0.00,,,0.00,meteohub,2013-12-28 09:11:00,
2013-12-28 03:16:00,30.7,23.7,29.93,South,180,4.0,5.0,75,0.00,,,0.00,meteohub,2013-12-28 09:16:00,
2013-12-28 03:21:00,31.6,25.3,29.92,South,180,4.0,4.0,77,0.00,,,0.00,meteohub,2013-12-28 09:21:00,
2013-12-28 03:26:00,32.4,25.7,29.91,South,180,4.0,5.0,76,0.00,,,0.00,meteohub,2013-12-28 09:26:00,
2013-12-28 03:31:00,32.4,25.7,29.91,South,180,4.0,6.0,76,0.00,,,0.00,meteohub,2013-12-28 09:31:00,
2013-12-28 03:36:00,30.6,23.5,29.92,South,180,4.0,6.0,75,0.00,,,0.00,meteohub,2013-12-28 09:36:00,
2013-12-28 03:41:00,29.8,23.2,29.91,South,180,4.0,6.0,76,0.00,,,0.00,meteohub,2013-12-28 09:41:00,
2013-12-28 03:46:00,30.4,24.1,29.91,SW,225,4.0,4.0,77,0.00,,,0.00,meteohub,2013-12-28 09:46:00,
2013-12-28 03:51:00,31.3,25.5,29.91,SW,225,6.0,6.0,79,0.00,,,0.00,meteohub,2013-12-28 09:51:00,
2013-12-28 03:56:00,32.0,25.9,29.90,SW,225,6.0,7.0,78,0.00,,,0.00,meteohub,2013-12-28 09:56:00,
2013-12-28 04:01:00,32.2,26.1,29.90,SW,225,4.0,7.0,78,0.00,,,0.00,meteohub,2013-12-28 10:01:00,
2013-12-28 04:07:00,32.2,26.1,29.89,SW,225,4.0,7.0,78,0.00,,,0.00,meteohub,2013-12-28 10:07:00,
2013-12-28 04:12:00,32.2,25.5,29.90,South,180,4.0,6.0,76,0.00,,,0.00,meteohub,2013-12-28 10:12:00,
2013-12-28 04:17:00,30.6,23.5,29.90,South,180,4.0,7.0,75,0.00,,,0.00,meteohub,2013-12-28 10:17:00,
2013-12-28 04:22:00,29.5,23.2,29.90,South,180,7.0,7.0,77,0.00,,,0.00,meteohub,2013-12-28 10:22:00,
2013-12-28 04:27:00,29.7,23.7,29.90,South,180,4.0,7.0,78,0.00,,,0.00,meteohub,2013-12-28 10:27:00,
2013-12-28 04:32:00,28.9,23.2,29.90,South,180,4.0,7.0,79,0.00,,,0.00,meteohub,2013-12-28 10:32:00,
2013-12-28 04:37:00,29.5,24.4,29.90,South,180,5.0,7.0,81,0.00,,,0.00,meteohub,2013-12-28 10:37:00,
2013-12-28 04:42:00,30.6,25.7,29.89,South,180,5.0,6.0,82,0.00,,,0.00,meteohub,2013-12-28 10:42:00,
2013-12-28 04:47:00,30.7,25.5,29.89,South,180,4.0,6.0,81,0.00,,,0.00,meteohub,2013-12-28 10:47:00,
2013-12-28 04:52:00,29.8,24.8,29.90,South,180,3.0,6.0,81,0.00,,,0.00,meteohub,2013-12-28 10:52:00,
2013-12-28 04:57:00,29.5,24.4,29.89,SE,135,4.0,6.0,81,0.00,,,0.00,meteohub,2013-12-28 10:57:00,
2013-12-28 05:02:00,29.5,24.4,29.89,South,180,4.0,4.0,81,0.00,,,0.00,meteohub,2013-12-28 11:02:00,
2013-12-28 05:07:00,28.9,23.9,29.90,South,180,4.0,4.0,81,0.00,,,0.00,meteohub,2013-12-28 11:07:00,
2013-12-28 05:12:00,28.6,23.5,29.90,South,180,4.0,4.0,81,0.00,,,0.00,meteohub,2013-12-28 11:12:00,
2013-12-28 05:17:00,28.0,21.7,29.90,South,180,7.0,7.0,77,0.00,,,0.00,meteohub,2013-12-28 11:17:00,
2013-12-28 05:21:00,28.2,22.6,29.90,South,180,6.0,7.0,79,0.00,,,0.00,meteohub,2013-12-28 11:21:00,
2013-12-28 05:26:00,28.8,24.6,29.90,South,180,4.0,8.0,84,0.00,,,0.00,meteohub,2013-12-28 11:26:00,
2013-12-28 05:31:00,29.1,25.2,29.90,South,180,4.0,8.0,85,0.00,,,0.00,meteohub,2013-12-28 11:31:00,
2013-12-28 05:36:00,28.9,25.0,29.90,South,180,4.0,8.0,85,0.00,,,0.00,meteohub,2013-12-28 11:36:00,
2013-12-28 05:41:00,27.9,22.5,29.90,SW,225,4.0,7.0,80,0.00,,,0.00,meteohub,2013-12-28 11:41:00,
2013-12-28 05:47:00,27.5,22.1,29.91,South,180,5.0,6.0,80,0.00,,,0.00,meteohub,2013-12-28 11:47:00,
2013-12-28 05:52:00,28.0,23.0,29.90,South,180,5.0,7.0,81,0.00,,,0.00,meteohub,2013-12-28 11:52:00,
2013-12-28 05:57:00,28.4,24.4,29.90,South,180,7.0,7.0,85,0.00,,,0.00,meteohub,2013-12-28 11:57:00,
2013-12-28 06:02:00,28.6,24.6,29.90,South,180,8.0,8.0,85,0.00,,,0.00,meteohub,2013-12-28 12:02:00,
2013-12-28 06:07:00,28.4,24.4,29.90,South,180,8.0,8.0,85,0.00,,,0.00,meteohub,2013-12-28 12:07:00,
2013-12-28 06:12:00,28.4,24.8,29.90,South,180,7.0,8.0,86,0.00,,,0.00,meteohub,2013-12-28 12:12:00,
2013-12-28 06:17:00,28.4,24.8,29.89,South,180,8.0,9.0,86,0.00,,,0.00,meteohub,2013-12-28 12:17:00,
2013-12-28 06:22:00,28.4,24.8,29.89,South,180,7.0,9.0,86,0.00,,,0.00,meteohub,2013-12-28 12:22:00,
2013-12-28 06:27:00,28.9,25.3,29.89,South,180,7.0,10.0,86,0.00,,,0.00,meteohub,2013-12-28 12:27:00,
2013-12-28 06:32:00,29.1,25.5,29.89,SE,135,8.0,10.0,86,0.00,,,0.00,meteohub,2013-12-28 12:32:00,
2013-12-28 06:37:00,28.8,25.2,29.89,South,180,4.0,8.0,86,0.00,,,0.00,meteohub,2013-12-28 12:37:00,
2013-12-28 06:42:00,28.9,25.3,29.89,SE,135,4.0,8.0,86,0.00,,,0.00,meteohub,2013-12-28 12:42:00,
2013-12-28 06:47:00,28.8,25.2,29.88,South,180,3.0,8.0,86,0.00,,,0.00,meteohub,2013-12-28 12:47:00,
2013-12-28 06:52:00,29.1,25.5,29.88,South,180,4.0,8.0,86,0.00,,,0.00,meteohub,2013-12-28 12:52:00,
2013-12-28 06:57:00,29.3,25.7,29.88,SW,225,4.0,6.0,86,0.00,,,0.00,meteohub,2013-12-28 12:57:00,
2013-12-28 07:02:00,29.3,25.7,29.88,South,180,4.0,6.0,86,0.00,,,0.00,meteohub,2013-12-28 13:02:00,
2013-12-28 07:07:00,28.9,25.3,29.88,South,180,5.0,6.0,86,0.00,,,0.00,meteohub,2013-12-28 13:07:00,
2013-12-28 07:12:00,28.2,23.2,29.88,SW,225,7.0,7.0,81,0.00,,,0.00,meteohub,2013-12-28 13:12:00,
2013-12-28 07:17:00,28.4,24.8,29.88,South,180,8.0,11.0,86,0.00,,,0.00,meteohub,2013-12-28 13:17:00,
2013-12-28 07:22:00,29.3,25.9,29.88,South,180,7.0,11.0,87,0.00,,,0.00,meteohub,2013-12-28 13:22:00,
2013-12-28 07:27:00,30.0,27.0,29.89,South,180,6.0,11.0,88,0.00,,,0.00,meteohub,2013-12-28 13:27:00,
2013-12-28 07:32:00,30.2,26.8,29.88,SE,135,5.0,9.0,87,0.00,,,0.00,meteohub,2013-12-28 13:32:00,
2013-12-28 07:37:00,29.7,26.6,29.88,South,180,6.0,8.0,88,0.00,,,0.00,meteohub,2013-12-28 13:37:00,
2013-12-28 07:42:00,29.7,26.2,29.88,South,180,5.0,8.0,87,0.00,,,0.00,meteohub,2013-12-28 13:42:00,
2013-12-28 07:47:00,30.4,27.0,29.87,South,180,8.0,8.0,87,0.00,,,0.00,meteohub,2013-12-28 13:47:00,
2013-12-28 07:52:00,30.6,27.1,29.87,SW,225,6.0,9.0,87,0.00,,,0.00,meteohub,2013-12-28 13:52:00,
2013-12-28 07:57:00,30.7,27.3,29.87,South,180,7.0,9.0,87,0.00,,,0.00,meteohub,2013-12-28 13:57:00,
2013-12-28 08:02:00,31.1,27.7,29.87,South,180,6.0,9.0,87,0.00,,,0.00,meteohub,2013-12-28 14:02:00,
2013-12-28 08:07:00,31.5,28.0,29.86,South,180,6.0,9.0,87,0.00,,,0.00,meteohub,2013-12-28 14:07:00,
2013-12-28 08:12:00,32.0,28.2,29.86,South,180,5.0,9.0,86,0.00,,,0.00,meteohub,2013-12-28 14:12:00,
2013-12-28 08:17:00,32.2,28.2,29.86,SW,225,6.0,9.0,85,0.00,,,0.00,meteohub,2013-12-28 14:17:00,
2013-12-28 08:22:00,32.4,28.4,29.86,South,180,5.0,9.0,85,0.00,,,0.00,meteohub,2013-12-28 14:22:00,
2013-12-28 08:27:00,32.7,28.4,29.85,South,180,8.0,11.0,84,0.00,,,0.00,meteohub,2013-12-28 14:27:00,
2013-12-28 08:32:00,32.9,28.6,29.85,South,180,4.0,11.0,84,0.00,,,0.00,meteohub,2013-12-28 14:32:00,
2013-12-28 08:37:00,33.1,28.4,29.85,SW,225,7.0,8.0,83,0.00,,,0.00,meteohub,2013-12-28 14:37:00,
2013-12-28 08:42:00,33.4,28.8,29.86,South,180,4.0,9.0,83,0.00,,,0.00,meteohub,2013-12-28 14:42:00,
2013-12-28 08:47:00,33.4,28.6,29.86,SW,225,4.0,9.0,82,0.00,,,0.00,meteohub,2013-12-28 14:47:00,
2013-12-28 08:52:00,33.6,28.4,29.86,SE,135,9.0,9.0,81,0.00,,,0.00,meteohub,2013-12-28 14:52:00,
2013-12-28 08:57:00,34.2,28.4,29.86,South,180,7.0,11.0,79,0.00,,,0.00,meteohub,2013-12-28 14:57:00,
2013-12-28 09:02:00,34.3,28.6,29.86,South,180,7.0,14.0,79,0.00,,,0.00,meteohub,2013-12-28 15:02:00,
2013-12-28 09:07:00,34.7,28.6,29.86,South,180,9.0,14.0,78,0.00,,,0.00,meteohub,2013-12-28 15:07:00,
2013-12-28 09:12:00,35.1,28.6,29.86,South,180,8.0,14.0,77,0.00,,,0.00,meteohub,2013-12-28 15:12:00,
2013-12-28 09:17:00,35.6,28.8,29.86,SW,225,11.0,13.0,76,0.00,,,0.00,meteohub,2013-12-28 15:17:00,
2013-12-28 09:22:00,36.0,28.4,29.86,SSW,203,11.0,13.0,74,0.00,,,0.00,meteohub,2013-12-28 15:22:00,
2013-12-28 09:27:00,36.3,28.6,29.87,SW,225,13.0,15.0,73,0.00,,,0.00,meteohub,2013-12-28 15:27:00,
2013-12-28 09:32:00,36.5,28.4,29.86,South,180,9.0,15.0,72,0.00,,,0.00,meteohub,2013-12-28 15:32:00,
2013-12-28 09:37:00,36.7,28.6,29.86,South,180,9.0,15.0,72,0.00,,,0.00,meteohub,2013-12-28 15:37:00,
2013-12-28 09:42:00,37.0,28.6,29.86,SW,225,8.0,13.0,71,0.00,,,0.00,meteohub,2013-12-28 15:42:00,
2013-12-28 09:47:00,37.2,28.8,29.86,South,180,10.0,12.0,71,0.00,,,0.00,meteohub,2013-12-28 15:47:00,
2013-12-28 09:52:00,37.4,30.2,29.86,SW,225,8.0,15.0,75,0.00,,,0.00,meteohub,2013-12-28 15:52:00,
2013-12-28 09:58:00,37.9,30.4,29.86,South,180,9.0,15.0,74,0.00,,,0.00,meteohub,2013-12-28 15:58:00,
2013-12-28 10:03:00,38.5,30.6,29.86,South,180,12.0,14.0,73,0.00,,,0.00,meteohub,2013-12-28 16:03:00,
2013-12-28 10:08:00,38.5,30.2,29.86,South,180,12.0,14.0,72,0.00,,,0.00,meteohub,2013-12-28 16:08:00,
2013-12-28 10:13:00,38.8,30.6,29.86,South,180,11.0,14.0,72,0.00,,,0.00,meteohub,2013-12-28 16:13:00,
2013-12-28 10:18:00,39.2,30.2,29.87,SW,225,11.0,14.0,70,0.00,,,0.00,meteohub,2013-12-28 16:18:00,
2013-12-28 10:24:00,39.7,30.4,29.86,South,180,7.0,14.0,69,0.00,,,0.00,meteohub,2013-12-28 16:24:00,
2013-12-28 10:29:00,39.9,30.2,29.86,South,180,11.0,15.0,68,0.00,,,0.00,meteohub,2013-12-28 16:29:00,
2013-12-28 10:34:00,39.9,29.8,29.86,SE,135,7.0,15.0,67,0.00,,,0.00,meteohub,2013-12-28 16:34:00,
2013-12-28 10:39:00,40.5,30.4,29.86,SE,135,9.0,15.0,67,0.00,,,0.00,meteohub,2013-12-28 16:39:00,
2013-12-28 10:44:00,41.2,30.7,29.86,South,180,5.0,14.0,66,0.00,,,0.00,meteohub,2013-12-28 16:44:00,
2013-12-28 10:49:00,41.5,30.7,29.85,SW,225,10.0,12.0,65,0.00,,,0.00,meteohub,2013-12-28 16:49:00,
2013-12-28 10:54:00,41.7,30.4,29.85,SW,225,9.0,11.0,64,0.00,,,0.00,meteohub,2013-12-28 16:54:00,
2013-12-28 11:00:00,42.3,30.6,29.85,South,180,10.0,11.0,63,0.00,,,0.00,meteohub,2013-12-28 17:00:00,
2013-12-28 11:05:00,42.4,30.7,29.84,South,180,9.0,11.0,63,0.00,,,0.00,meteohub,2013-12-28 17:05:00,
2013-12-28 11:10:00,42.8,30.2,29.84,South,180,8.0,11.0,61,0.00,,,0.00,meteohub,2013-12-28 17:10:00,
2013-12-28 11:15:00,43.0,30.4,29.84,South,180,14.0,14.0,61,0.00,,,0.00,meteohub,2013-12-28 17:15:00,
2013-12-28 11:20:00,43.0,30.4,29.83,SW,225,10.0,14.0,61,0.00,,,0.00,meteohub,2013-12-28 17:20:00,
2013-12-28 11:25:00,43.7,30.7,29.83,SW,225,9.0,16.0,60,0.00,,,0.00,meteohub,2013-12-28 17:25:00,
2013-12-28 11:30:00,43.7,29.8,29.83,SW,225,12.0,16.0,58,0.00,,,0.00,meteohub,2013-12-28 17:30:00,
2013-12-28 11:35:00,43.5,30.2,29.83,South,180,13.0,15.0,59,0.00,,,0.00,meteohub,2013-12-28 17:35:00,
2013-12-28 11:40:00,43.5,30.2,29.83,South,180,11.0,15.0,59,0.00,,,0.00,meteohub,2013-12-28 17:40:00,
2013-12-28 11:45:00,43.5,30.2,29.82,SSW,203,6.0,15.0,59,0.00,,,0.00,meteohub,2013-12-28 17:45:00,
2013-12-28 11:50:00,43.5,30.2,29.82,SW,225,8.0,15.0,59,0.00,,,0.00,meteohub,2013-12-28 17:50:00,
2013-12-28 11:55:00,43.7,30.4,29.82,South,180,9.0,12.0,59,0.00,,,0.00,meteohub,2013-12-28 17:55:00,
2013-12-28 12:00:00,43.9,30.6,29.81,South,180,8.0,12.0,59,0.00,,,0.00,meteohub,2013-12-28 18:00:00,
2013-12-28 12:05:00,43.9,30.0,29.81,South,180,8.0,11.0,58,0.00,,,0.00,meteohub,2013-12-28 18:05:00,
2013-12-28 12:10:00,43.7,29.8,29.81,SW,225,15.0,15.0,58,0.00,,,0.00,meteohub,2013-12-28 18:10:00,
2013-12-28 12:16:00,43.7,30.4,29.81,South,180,8.0,15.0,59,0.00,,,0.00,meteohub,2013-12-28 18:16:00,
2013-12-28 12:21:00,43.9,30.6,29.80,WSW,248,13.0,15.0,59,0.00,,,0.00,meteohub,2013-12-28 18:21:00,
2013-12-28 12:26:00,43.7,30.4,29.80,South,180,13.0,18.0,59,0.00,,,0.00,meteohub,2013-12-28 18:26:00,
2013-12-28 12:31:00,43.9,30.6,29.80,SW,225,13.0,18.0,59,0.00,,,0.00,meteohub,2013-12-28 18:31:00,
2013-12-28 12:36:00,43.9,30.6,29.80,South,180,12.0,15.0,59,0.00,,,0.00,meteohub,2013-12-28 18:36:00,
2013-12-28 12:41:00,44.2,30.7,29.80,SE,135,11.0,15.0,59,0.00,,,0.00,meteohub,2013-12-28 18:41:00,
2013-12-28 12:46:00,43.9,30.0,29.79,South,180,14.0,15.0,58,0.00,,,0.00,meteohub,2013-12-28 18:46:00,
2013-12-28 12:51:00,43.9,30.6,29.79,South,180,12.0,18.0,59,0.00,,,0.00,meteohub,2013-12-28 18:51:00,
2013-12-28 12:56:00,44.2,30.7,29.79,South,180,15.0,18.0,59,0.00,,,0.00,meteohub,2013-12-28 18:56:00,
2013-12-28 13:01:00,44.6,30.4,29.79,South,180,12.0,18.0,57,0.00,,,0.00,meteohub,2013-12-28 19:01:00,
2013-12-28 13:07:00,44.6,30.4,29.79,South,180,14.0,15.0,57,0.00,,,0.00,meteohub,2013-12-28 19:07:00,
2013-12-28 13:12:00,44.8,30.0,29.79,South,180,14.0,15.0,56,0.00,,,0.00,meteohub,2013-12-28 19:12:00,
2013-12-28 13:17:00,45.0,30.2,29.78,SW,225,13.0,17.0,56,0.00,,,0.00,meteohub,2013-12-28 19:17:00,
2013-12-28 13:22:00,45.0,30.2,29.78,South,180,11.0,17.0,56,0.00,,,0.00,meteohub,2013-12-28 19:22:00,
2013-12-28 13:27:00,45.0,29.8,29.78,SW,225,9.0,17.0,55,0.00,,,0.00,meteohub,2013-12-28 19:27:00,
2013-12-28 13:32:00,45.3,30.0,29.78,South,180,8.0,17.0,55,0.00,,,0.00,meteohub,2013-12-28 19:32:00,
2013-12-28 13:37:00,45.3,30.0,29.78,South,180,11.0,16.0,55,0.00,,,0.00,meteohub,2013-12-28 19:37:00,
2013-12-28 13:42:00,45.3,30.0,29.78,South,180,12.0,17.0,55,0.00,,,0.00,meteohub,2013-12-28 19:42:00,
2013-12-28 13:47:00,45.5,30.2,29.78,South,180,13.0,17.0,55,0.00,,,0.00,meteohub,2013-12-28 19:47:00,
2013-12-28 13:52:00,45.3,30.0,29.78,SW,225,11.0,17.0,55,0.00,,,0.00,meteohub,2013-12-28 19:52:00,
2013-12-28 13:57:00,45.3,30.0,29.78,South,180,14.0,16.0,55,0.00,,,0.00,meteohub,2013-12-28 19:57:00,
2013-12-28 14:02:00,45.3,30.0,29.78,SW,225,15.0,17.0,55,0.00,,,0.00,meteohub,2013-12-28 20:02:00,
2013-12-28 14:07:00,45.3,30.0,29.78,South,180,14.0,17.0,55,0.00,,,0.00,meteohub,2013-12-28 20:07:00,
2013-12-28 14:12:00,45.1,30.0,29.78,SW,225,11.0,17.0,55,0.00,,,0.00,meteohub,2013-12-28 20:12:00,
2013-12-28 14:18:00,45.3,30.0,29.78,South,180,11.0,17.0,55,0.00,,,0.00,meteohub,2013-12-28 20:18:00,
2013-12-28 14:23:00,45.5,30.2,29.78,South,180,12.0,17.0,55,0.00,,,0.00,meteohub,2013-12-28 20:23:00,
2013-12-28 14:28:00,45.3,30.0,29.78,South,180,15.0,15.0,55,0.00,,,0.00,meteohub,2013-12-28 20:28:00,
2013-12-28 14:33:00,45.3,30.0,29.78,South,180,10.0,17.0,55,0.00,,,0.00,meteohub,2013-12-28 20:33:00,
2013-12-28 14:38:00,45.3,30.0,29.78,South,180,14.0,17.0,55,0.00,,,0.00,meteohub,2013-12-28 20:38:00,
2013-12-28 14:43:00,45.3,30.0,29.78,SE,135,11.0,18.0,55,0.00,,,0.00,meteohub,2013-12-28 20:43:00,
2013-12-28 14:48:00,45.3,30.0,29.78,South,180,16.0,18.0,55,0.00,,,0.00,meteohub,2013-12-28 20:48:00,
2013-12-28 14:53:00,45.1,30.0,29.78,South,180,12.0,19.0,55,0.00,,,0.00,meteohub,2013-12-28 20:53:00,
2013-12-28 14:58:00,45.1,30.0,29.78,South,180,9.0,19.0,55,0.00,,,0.00,meteohub,2013-12-28 20:58:00,
2013-12-28 15:03:00,45.1,30.0,29.78,South,180,9.0,19.0,55,0.00,,,0.00,meteohub,2013-12-28 21:03:00,
2013-12-28 15:08:00,45.1,30.0,29.78,South,180,14.0,19.0,55,0.00,,,0.00,meteohub,2013-12-28 21:08:00,
2013-12-28 15:13:00,45.1,30.0,29.78,SW,225,9.0,19.0,55,0.00,,,0.00,meteohub,2013-12-28 21:13:00,
2013-12-28 15:19:00,45.1,30.0,29.78,SW,225,13.0,16.0,55,0.00,,,0.00,meteohub,2013-12-28 21:19:00,
2013-12-28 15:24:00,45.0,29.8,29.78,SW,225,8.0,16.0,55,0.00,,,0.00,meteohub,2013-12-28 21:24:00,
2013-12-28 15:29:00,45.0,29.8,29.78,South,180,11.0,15.0,55,0.00,,,0.00,meteohub,2013-12-28 21:29:00,
2013-12-28 15:34:00,45.0,29.8,29.78,South,180,8.0,15.0,55,0.00,,,0.00,meteohub,2013-12-28 21:34:00,
2013-12-28 15:39:00,45.0,29.8,29.78,South,180,10.0,15.0,55,0.00,,,0.00,meteohub,2013-12-28 21:39:00,
2013-12-28 15:45:00,44.6,29.8,29.78,South,180,11.0,16.0,56,0.00,,,0.00,meteohub,2013-12-28 21:45:00,
2013-12-28 15:50:00,44.4,30.2,29.78,South,180,9.0,16.0,57,0.00,,,0.00,meteohub,2013-12-28 21:50:00,
2013-12-28 15:55:00,44.1,30.2,29.78,South,180,13.0,16.0,58,0.00,,,0.00,meteohub,2013-12-28 21:55:00,
2013-12-28 16:00:00,43.9,30.0,29.78,South,180,9.0,15.0,58,0.00,,,0.00,meteohub,2013-12-28 22:00:00,
2013-12-28 16:05:00,43.5,30.2,29.78,South,180,9.0,15.0,59,0.00,,,0.00,meteohub,2013-12-28 22:05:00,
2013-12-28 16:10:00,43.3,30.4,29.78,SW,225,12.0,15.0,60,0.00,,,0.00,meteohub,2013-12-28 22:10:00,
2013-12-28 16:15:00,42.8,30.2,29.78,South,180,11.0,14.0,61,0.00,,,0.00,meteohub,2013-12-28 22:15:00,
2013-12-28 16:21:00,42.6,30.9,29.78,SE,135,7.0,14.0,63,0.00,,,0.00,meteohub,2013-12-28 22:21:00,
2013-12-28 16:26:00,42.1,30.4,29.78,South,180,8.0,13.0,63,0.00,,,0.00,meteohub,2013-12-28 22:26:00,
2013-12-28 16:31:00,41.5,30.2,29.78,SE,135,8.0,15.0,64,0.00,,,0.00,meteohub,2013-12-28 22:31:00,
2013-12-28 16:36:00,41.4,30.0,29.78,South,180,9.0,15.0,64,0.00,,,0.00,meteohub,2013-12-28 22:36:00,
2013-12-28 16:41:00,40.8,30.4,29.77,South,180,7.0,15.0,66,0.00,,,0.00,meteohub,2013-12-28 22:41:00,
2013-12-28 16:46:00,40.5,30.0,29.77,South,180,8.0,10.0,66,0.00,,,0.00,meteohub,2013-12-28 22:46:00,
2013-12-28 16:51:00,40.5,30.4,29.76,South,180,13.0,13.0,67,0.00,,,0.00,meteohub,2013-12-28 22:51:00,
2013-12-28 16:56:00,40.5,30.4,29.76,South,180,8.0,13.0,67,0.00,,,0.00,meteohub,2013-12-28 22:56:00,
2013-12-28 17:01:00,40.1,30.0,29.76,South,180,11.0,13.0,67,0.00,,,0.00,meteohub,2013-12-28 23:01:00,
2013-12-28 17:06:00,39.9,30.2,29.76,South,180,7.0,13.0,68,0.00,,,0.00,meteohub,2013-12-28 23:06:00,
2013-12-28 17:11:00,40.1,30.4,29.76,South,180,8.0,16.0,68,0.00,,,0.00,meteohub,2013-12-28 23:11:00,
2013-12-28 17:16:00,39.9,30.2,29.75,SE,135,10.0,16.0,68,0.00,,,0.00,meteohub,2013-12-28 23:16:00,
2013-12-28 17:21:00,39.9,30.2,29.75,South,180,7.0,16.0,68,0.00,,,0.00,meteohub,2013-12-28 23:21:00,
2013-12-28 17:26:00,39.4,29.7,29.75,South,180,11.0,15.0,68,0.00,,,0.00,meteohub,2013-12-28 23:26:00,
2013-12-28 17:31:00,39.6,30.2,29.75,South,180,11.0,13.0,69,0.00,,,0.00,meteohub,2013-12-28 23:31:00,
2013-12-28 17:36:00,39.6,30.2,29.75,South,180,9.0,15.0,69,0.00,,,0.00,meteohub,2013-12-28 23:36:00,
2013-12-28 17:41:00,39.4,30.0,29.74,South,180,10.0,15.0,69,0.00,,,0.00,meteohub,2013-12-28 23:41:00,
2013-12-28 17:46:00,39.4,30.0,29.74,South,180,11.0,15.0,69,0.00,,,0.00,meteohub,2013-12-28 23:46:00,
2013-12-28 17:51:00,39.2,29.8,29.74,South,180,8.0,14.0,69,0.00,,,0.00,meteohub,2013-12-28 23:51:00,
2013-12-28 17:57:00,39.2,29.8,29.74,South,180,10.0,14.0,69,0.00,,,0.00,meteohub,2013-12-28 23:57:00,
2013-12-28 18:02:00,39.0,30.0,29.74,South,180,6.0,11.0,70,0.00,,,0.00,meteohub,2013-12-29 00:02:00,
2013-12-28 18:07:00,38.8,30.2,29.73,South,180,12.0,12.0,71,0.00,,,0.00,meteohub,2013-12-29 00:07:00,
2013-12-28 18:12:00,39.2,30.2,29.73,South,180,7.0,12.0,70,0.00,,,0.00,meteohub,2013-12-29 00:12:00,
2013-12-28 18:17:00,38.7,30.0,29.73,South,180,8.0,12.0,71,0.00,,,0.00,meteohub,2013-12-29 00:17:00,
2013-12-28 18:22:00,39.0,30.4,29.73,South,180,8.0,12.0,71,0.00,,,0.00,meteohub,2013-12-29 00:22:00,
2013-12-28 18:27:00,38.8,30.2,29.73,South,180,9.0,13.0,71,0.00,,,0.00,meteohub,2013-12-29 00:27:00,
2013-12-28 18:32:00,38.8,30.6,29.72,South,180,8.0,13.0,72,0.00,,,0.00,meteohub,2013-12-29 00:32:00,
2013-12-28 18:37:00,38.8,30.2,29.73,SW,225,11.0,11.0,71,0.00,,,0.00,meteohub,2013-12-29 00:37:00,
2013-12-28 18:42:00,39.0,30.7,29.72,South,180,7.0,11.0,72,0.00,,,0.00,meteohub,2013-12-29 00:42:00,
2013-12-28 18:47:00,39.2,30.2,29.72,SW,225,8.0,11.0,70,0.00,,,0.00,meteohub,2013-12-29 00:47:00,
2013-12-28 18:52:00,39.0,30.4,29.72,South,180,11.0,15.0,71,0.00,,,0.00,meteohub,2013-12-29 00:52:00,
2013-12-28 18:57:00,39.2,30.6,29.72,SE,135,12.0,15.0,71,0.00,,,0.00,meteohub,2013-12-29 00:57:00,
2013-12-28 19:02:00,39.2,30.2,29.71,South,180,7.0,15.0,70,0.00,,,0.00,meteohub,2013-12-29 01:02:00,
2013-12-28 19:07:00,39.2,30.2,29.72,South,180,9.0,15.0,70,0.00,,,0.00,meteohub,2013-12-29 01:07:00,
2013-12-28 19:12:00,39.2,30.2,29.72,SW,225,8.0,15.0,70,0.00,,,0.00,meteohub,2013-12-29 01:12:00,
2013-12-28 19:17:00,39.2,30.6,29.72,South,180,10.0,15.0,71,0.00,,,0.00,meteohub,2013-12-29 01:17:00,
2013-12-28 19:22:00,39.2,30.2,29.71,SW,225,17.0,17.0,70,0.00,,,0.00,meteohub,2013-12-29 01:22:00,
2013-12-28 19:27:00,39.7,31.1,29.71,SW,225,11.0,17.0,71,0.00,,,0.00,meteohub,2013-12-29 01:27:00,
2013-12-28 19:32:00,39.7,30.7,29.70,South,180,12.0,17.0,70,0.00,,,0.00,meteohub,2013-12-29 01:32:00,
2013-12-28 19:37:00,39.7,30.7,29.71,South,180,12.0,17.0,70,0.00,,,0.00,meteohub,2013-12-29 01:37:00,
2013-12-28 19:42:00,39.9,30.6,29.70,South,180,9.0,13.0,69,0.00,,,0.00,meteohub,2013-12-29 01:42:00,
2013-12-28 19:47:00,39.9,30.6,29.70,SW,225,6.0,13.0,69,0.00,,,0.00,meteohub,2013-12-29 01:47:00,
2013-12-28 19:52:00,39.7,30.4,29.70,SW,225,9.0,13.0,69,0.00,,,0.00,meteohub,2013-12-29 01:52:00,
2013-12-28 19:57:00,39.4,30.0,29.70,South,180,11.0,11.0,69,0.00,,,0.00,meteohub,2013-12-29 01:57:00,
2013-12-28 20:02:00,39.7,30.4,29.70,SW,225,6.0,15.0,69,0.00,,,0.00,meteohub,2013-12-29 02:02:00,
2013-12-28 20:07:00,40.1,30.7,29.70,South,180,9.0,15.0,69,0.00,,,0.00,meteohub,2013-12-29 02:07:00,
2013-12-28 20:12:00,40.3,30.6,29.70,South,180,7.0,15.0,68,0.00,,,0.00,meteohub,2013-12-29 02:12:00,
2013-12-28 20:17:00,39.9,30.2,29.70,South,180,8.0,16.0,68,0.00,,,0.00,meteohub,2013-12-29 02:17:00,
2013-12-28 20:22:00,39.4,29.7,29.70,South,180,11.0,16.0,68,0.00,,,0.00,meteohub,2013-12-29 02:22:00,
2013-12-28 20:27:00,39.7,30.4,29.70,South,180,10.0,17.0,69,0.00,,,0.00,meteohub,2013-12-29 02:27:00,
2013-12-28 20:32:00,39.7,30.4,29.70,SW,225,15.0,17.0,69,0.00,,,0.00,meteohub,2013-12-29 02:32:00,
2013-12-28 20:38:00,40.1,30.4,29.70,SW,225,12.0,17.0,68,0.00,,,0.00,meteohub,2013-12-29 02:38:00,
2013-12-28 20:43:00,40.1,30.4,29.70,SW,225,15.0,17.0,68,0.00,,,0.00,meteohub,2013-12-29 02:43:00,
2013-12-28 20:48:00,40.3,30.6,29.70,SW,225,13.0,17.0,68,0.00,,,0.00,meteohub,2013-12-29 02:48:00,
2013-12-28 20:53:00,40.3,30.2,29.70,SW,225,14.0,18.0,67,0.00,,,0.00,meteohub,2013-12-29 02:53:00,
2013-12-28 20:59:00,40.1,30.0,29.70,South,180,13.0,18.0,67,0.00,,,0.00,meteohub,2013-12-29 02:59:00,
2013-12-28 21:04:00,40.5,30.4,29.69,South,180,13.0,18.0,67,0.00,,,0.00,meteohub,2013-12-29 03:04:00,
2013-12-28 21:09:00,40.5,30.4,29.70,SW,225,10.0,17.0,67,0.00,,,0.00,meteohub,2013-12-29 03:09:00,
2013-12-28 21:15:00,40.5,30.0,29.70,SW,225,12.0,15.0,66,0.00,,,0.00,meteohub,2013-12-29 03:15:00,
2013-12-28 21:20:00,40.8,30.4,29.69,South,180,18.0,18.0,66,0.00,,,0.00,meteohub,2013-12-29 03:20:00,
2013-12-28 21:26:00,41.0,30.2,29.69,South,180,11.0,19.0,65,0.00,,,0.00,meteohub,2013-12-29 03:26:00,
2013-12-28 21:31:00,40.8,30.4,29.69,South,180,8.0,19.0,66,0.00,,,0.00,meteohub,2013-12-29 03:31:00,
2013-12-28 21:36:00,40.8,30.4,29.69,South,180,19.0,19.0,66,0.00,,,0.00,meteohub,2013-12-29 03:36:00,
2013-12-28 21:42:00,41.0,29.8,29.68,SW,225,15.0,23.0,64,0.00,,,0.00,meteohub,2013-12-29 03:42:00,
2013-12-28 21:47:00,41.2,30.0,29.68,SW,225,17.0,23.0,64,0.00,,,0.00,meteohub,2013-12-29 03:47:00,
2013-12-28 21:52:00,41.4,30.0,29.68,South,180,18.0,21.0,64,0.00,,,0.00,meteohub,2013-12-29 03:52:00,
2013-12-28 21:57:00,41.4,30.0,29.68,SW,225,17.0,21.0,64,0.00,,,0.00,meteohub,2013-12-29 03:57:00,
2013-12-28 22:02:00,41.0,29.8,29.68,SW,225,12.0,21.0,64,0.00,,,0.00,meteohub,2013-12-29 04:02:00,
2013-12-28 22:07:00,41.0,29.8,29.68,South,180,15.0,21.0,64,0.00,,,0.00,meteohub,2013-12-29 04:07:00,
2013-12-28 22:12:00,41.2,29.5,29.68,SW,225,14.0,21.0,63,0.00,,,0.00,meteohub,2013-12-29 04:12:00,
2013-12-28 22:17:00,41.2,29.5,29.68,SW,225,21.0,21.0,63,0.00,,,0.00,meteohub,2013-12-29 04:17:00,
2013-12-28 22:22:00,41.2,29.5,29.68,SW,225,21.0,23.0,63,0.00,,,0.00,meteohub,2013-12-29 04:22:00,
2013-12-28 22:27:00,40.8,29.7,29.68,SW,225,23.0,23.0,64,0.00,,,0.00,meteohub,2013-12-29 04:27:00,
2013-12-28 22:32:00,41.0,29.3,29.68,SW,225,15.0,23.0,63,0.00,,,0.00,meteohub,2013-12-29 04:32:00,
2013-12-28 22:37:00,40.8,29.7,29.68,SW,225,17.0,23.0,64,0.00,,,0.00,meteohub,2013-12-29 04:37:00,
2013-12-28 22:42:00,40.6,29.5,29.69,SW,225,20.0,23.0,64,0.00,,,0.00,meteohub,2013-12-29 04:42:00,
2013-12-28 22:47:00,40.6,29.5,29.69,SW,225,15.0,23.0,64,0.00,,,0.00,meteohub,2013-12-29 04:47:00,
2013-12-28 22:52:00,40.5,29.3,29.68,SW,225,17.0,22.0,64,0.00,,,0.00,meteohub,2013-12-29 04:52:00,
2013-12-28 22:57:00,40.5,29.3,29.68,SW,225,16.0,22.0,64,0.00,,,0.00,meteohub,2013-12-29 04:57:00,
2013-12-28 23:01:00,40.5,29.3,29.68,SW,225,17.0,19.0,64,0.00,,,0.00,meteohub,2013-12-29 05:01:00,
2013-12-28 23:02:00,40.5,29.3,29.68,SW,225,17.0,19.0,64,0.00,,,0.00,meteohub,2013-12-29 05:02:00,
2013-12-28 23:04:00,40.5,29.3,29.68,SW,225,15.0,19.0,64,0.00,,,0.00,meteohub,2013-12-29 05:04:00,
2013-12-28 23:06:00,40.5,29.3,29.68,SW,225,17.0,19.0,64,0.00,,,0.00,meteohub,2013-12-29 05:06:00,
2013-12-28 23:11:00,40.3,29.1,29.68,SW,225,13.0,20.0,64,0.00,,,0.00,meteohub,2013-12-29 05:11:00,
2013-12-28 23:16:00,39.9,29.1,29.68,SW,225,19.0,20.0,65,0.00,,,0.00,meteohub,2013-12-29 05:16:00,
2013-12-28 23:21:00,40.1,29.3,29.66,SW,225,21.0,21.0,65,0.00,,,0.00,meteohub,2013-12-29 05:21:00,
2013-12-28 23:26:00,39.7,28.9,29.67,SW,225,18.0,23.0,65,0.00,,,0.00,meteohub,2013-12-29 05:26:00,
2013-12-28 23:31:00,39.9,29.1,29.66,SW,225,17.0,23.0,65,0.00,,,0.00,meteohub,2013-12-29 05:31:00,
2013-12-28 23:36:00,39.6,28.8,29.66,SW,225,17.0,21.0,65,0.00,,,0.00,meteohub,2013-12-29 05:36:00,
2013-12-28 23:41:00,39.7,28.9,29.65,SW,225,16.0,22.0,65,0.00,,,0.00,meteohub,2013-12-29 05:41:00,
2013-12-28 23:46:00,39.9,29.1,29.65,SW,225,19.0,24.0,65,0.00,,,0.00,meteohub,2013-12-29 05:46:00,
2013-12-28 23:51:00,39.7,28.9,29.65,NW,315,15.0,24.0,65,0.00,,,0.00,meteohub,2013-12-29 05:51:00,
2013-12-28 23:57:00,39.6,28.8,29.64,SW,225,18.0,24.0,65,0.00,,,0.00,meteohub,2013-12-29 05:57:00,